Wind_Speed
37 37 37 37 37 37 38 38 38 38 39 39 40 40 41 41 40 40 40 40 41 40 40 40 39 39 39 40 40 40 41 41 40 40 39 39 39 38
39 38 38 38 38 39 39 38 39 40 40 40 41 41 41 40 40 39 39 40 40 39 38 38 38 39 40 40 40 40 39 39 39 38 39 39 38 38
40 40 39 40 40 40 40 40 40 41 41 41 41 42 41 41 40 40 40 40 39 39 39 38 38 39 40 40 41 40 39 38 39 39 39 38 38 37
40 40 40 41 40 40 40 40 41 41 41 42 41 41 41 41 40 40 40 39 39 39 39 39 39 39 39 39 40 40 39 39 39 39 38 38 38 38
40 40 40 41 41 41 40 40 40 41 41 42 41 41 40 40 40 40 40 39 39 39 39 39 39 39 39 40 40 40 40 39 38 38 37 37 38 38
39 40 40 41 42 41 41 41 41 41 41 40 40 40 40 40 40 40 40 40 40 39 39 39 39 39 40 40 40 39 39 39 38 37 37 37 37 37
39 40 41 41 41 42 42 41 41 41 40 39 39 40 40 39 39 39 39 39 40 40 40 40 41 41 40 40 40 39 38 38 38 37 37 36 36 36
39 39 40 41 41 41 41 41 41 41 41 41 40 40 40 39 39 39 39 38 39 39 40 40 40 40 41 40 39 38 38 38 38 38 38 37 36 36
39 39 39 39 40 40 40 40 41 41 41 41 40 40 40 39 39 38 38 38 38 39 39 40 40 40 39 38 37 37 37 37 37 37 37 36 36 36
40 40 40 40 40 40 40 39 39 39 40 40 40 40 39 39 38 38 39 39 39 39 39 39 38 38 38 37 37 36 36 36 36 36 36 36 35 35
40 40 40 40 41 41 40 40 39 39 40 40 39 39 39 38 37 37 38 38 38 39 39 38 37 37 37 38 37 37 37 37 36 36 35 35 34 34
40 40 40 40 40 40 40 40 40 40 40 39 38 38 37 37 37 37 37 38 38 38 38 38 37 37 36 36 37 37 36 36 37 36 35 34 34 33
39 39 39 39 39 40 40 40 40 39 39 39 39 39 38 38 37 37 36 36 36 37 37 38 38 37 36 35 35 36 36 36 36 35 34 33 33 32
38 38 39 39 40 40 41 40 40 40 40 39 39 38 38 38 38 37 35 35 34 35 36 37 36 35 34 34 34 34 35 35 35 34 33 32 32 32
39 39 39 40 40 41 40 39 39 38 37 37 37 37 37 37 37 36 36 35 35 34 34 34 34 34 33 33 33 33 33 33 33 32 31 31 31 31
39 39 39 39 39 39 39 38 38 37 36 36 36 36 36 36 36 36 36 35 35 34 34 33 34 33 33 33 33 32 31 31 30 30 29 29 29 29
37 37 37 37 37 36 37 36 35 35 34 34 35 36 35 35 35 34 34 34 34 34 34 34 34 33 33 32 32 31 30 29 29 28 28 27 27 27
36 36 35 35 35 34 34 34 34 34 34 34 34 34 34 34 34 34 33 33 33 33 33 34 34 33 33 32 31 30 29 28 28 27 26 26 26 26
35 34 34 33 33 33 33 32 33 33 33 33 33 33 34 34 34 33 33 32 32 32 32 32 32 32 32 30 29 28 27 27 26 26 25 25 24 24
33 33 33 33 33 33 33 32 33 33 33 33 33 33 33 33 33 33 32 32 31 31 30 30 30 29 29 28 28 27 26 26 26 25 25 24 24 23
32 32 33 33 33 33 33 33 33 33 33 33 33 33 33 33 33 32 32 32 31 30 29 28 28 27 27 27 26 26 26 26 26 25 25 24 23 23
32 32 32 32 32 32 32 33 33 33 33 33 33 33 33 33 33 32 32 31 30 29 28 27 26 26 26 25 25 25 25 25 26 25 24 24 23 22
31 31 31 32 32 32 32 32 33 33 33 33 32 32 32 32 32 31 31 30 29 27 26 26 25 26 25 24 24 24 24 24 25 25 24 23 22 21
Wind_Direction
262 263 264 266 268 270 271 272 273 273 274 276 277 277 278 278 277 278 278 279 280 280 280 280 281 282 283 284 285 285 285 284 283 282 282 283 283 282
261 262 263 264 267 268 269 271 273 274 274 276 277 277 277 277 278 278 279 280 281 280 280 281 282 283 284 285 286 286 286 284 284 284 285 285 284 284
261 261 263 265 267 268 269 271 273 275 275 275 276 276 276 276 277 278 279 280 281 280 280 281 282 284 285 286 286 287 288 287 286 286 286 285 284 285
260 262 264 265 267 268 269 271 273 275 276 276 276 275 275 276 277 277 278 278 279 280 280 280 282 283 285 286 287 286 286 286 286 286 286 286 285 284
261 263 264 265 266 268 271 273 274 275 277 277 276 275 275 276 277 277 277 277 277 279 279 280 281 283 285 286 287 286 284 285 286 286 286 286 286 285
263 264 265 266 267 268 271 273 274 276 277 276 276 275 276 277 276 277 276 276 276 277 279 279 280 282 284 286 287 286 285 284 285 286 287 287 287 285
264 266 266 267 268 269 271 273 275 276 275 275 276 276 277 275 275 276 275 275 275 277 278 280 281 282 284 286 286 285 284 284 284 286 286 286 287 286
263 265 266 268 269 270 271 273 274 274 274 274 275 276 277 275 275 275 275 274 275 277 278 280 281 282 283 284 284 284 284 284 285 287 287 287 287 287
263 265 266 267 269 270 272 273 274 275 275 275 274 275 277 275 275 274 274 274 275 277 277 280 281 282 283 283 282 283 283 284 286 287 288 288 288 287
264 265 265 266 267 269 271 272 273 274 275 274 274 274 275 274 273 275 274 274 275 277 278 279 280 282 282 282 282 283 285 285 287 288 288 289 289 288
263 265 266 266 267 268 270 272 272 273 273 273 273 273 272 272 273 275 275 275 276 277 278 280 281 281 282 282 282 283 283 285 287 287 287 288 287 287
264 265 265 266 267 267 269 271 272 272 272 272 273 273 272 272 273 274 276 276 276 277 278 279 281 281 281 281 282 283 283 284 286 286 286 286 287 286
266 266 266 267 267 269 271 272 272 272 272 271 271 272 272 272 272 274 277 277 277 278 278 279 281 281 281 281 281 283 283 284 285 286 285 284 285 286
266 267 268 268 269 270 272 273 272 270 271 271 270 271 272 271 272 274 276 277 278 280 279 280 281 281 282 281 282 282 283 284 285 285 285 285 285 286
266 267 268 269 270 271 272 272 271 270 270 270 269 270 270 271 271 273 276 277 278 279 281 281 281 281 281 282 283 282 283 284 284 283 283 284 285 284
266 267 268 270 271 271 272 272 270 269 268 269 270 270 270 271 272 274 275 276 277 279 280 281 281 281 282 283 283 281 282 283 282 282 282 282 283 284
267 268 269 270 271 271 270 269 268 267 268 269 270 269 270 272 273 274 274 275 276 278 280 281 281 282 282 282 282 281 280 281 281 281 281 282 283 285
266 267 268 269 269 268 268 268 267 266 268 270 270 270 271 272 273 273 274 274 275 277 278 280 282 282 282 282 282 281 280 280 281 281 281 282 283 286
264 265 266 266 267 267 267 267 267 267 267 269 270 271 271 271 272 272 273 273 276 278 278 280 281 282 282 281 281 281 281 280 280 280 281 282 283 285
262 263 264 265 267 267 266 266 268 268 268 269 270 271 271 271 272 272 272 274 276 278 278 279 279 280 281 280 279 278 279 279 279 279 281 282 282 285
262 263 264 266 267 267 266 266 268 269 268 269 270 270 271 272 272 272 273 274 276 276 277 278 278 279 280 280 277 277 276 277 278 279 280 281 282 283
263 264 266 266 267 267 267 267 268 268 268 269 271 271 271 271 271 272 272 274 274 274 274 275 276 278 279 278 277 277 276 276 277 279 279 278 279 279
265 266 267 267 267 268 267 268 268 268 268 268 269 269 269 270 270 271 271 271 271 271 272 273 274 276 277 276 276 277 277 278 278 279 278 275 275 276
Height
5690 5691 5692 5693 5693 5693 5692 5692 5692 5691 5692 5690 5688 5686 5684 5682 5680 5679 5678 5676 5675 5673 5671 5670 5668 5666 5664 5662 5659 5657 5655 5653 5651 5649 5647 5645 5643 5642
5680 5681 5682 5683 5683 5683 5682 5682 5681 5681 5680 5680 5678 5676 5674 5672 5670 5668 5667 5665 5664 5662 5661 5659 5657 5656 5654 5651 5649 5647 5645 5642 5640 5638 5636 5635 5633 5631
5670 5671 5672 5673 5673 5673 5672 5672 5671 5670 5669 5669 5666 5664 5663 5661 5659 5658 5656 5655 5654 5652 5651 5649 5647 5646 5643 5641 5639 5637 5634 5632 5630 5628 5626 5624 5623 5621
5660 5661 5662 5662 5662 5662 5662 5661 5660 5659 5658 5657 5656 5654 5652 5651 5649 5648 5646 5645 5644 5642 5641 5639 5638 5636 5634 5632 5629 5627 5625 5622 5620 5618 5616 5615 5613 5611
5649 5650 5651 5651 5651 5651 5650 5650 5649 5648 5647 5646 5644 5643 5642 5640 5638 5637 5636 5634 5633 5632 5631 5629 5628 5626 5624 5622 5619 5617 5615 5613 5611 5608 5606 5604 5602 5600
5638 5638 5639 5640 5640 5640 5639 5639 5638 5637 5635 5634 5633 5632 5631 5629 5628 5627 5625 5624 5623 5622 5620 5619 5618 5616 5614 5612 5610 5607 5605 5603 5601 5598 5596 5594 5592 5590
5627 5627 5628 5628 5628 5628 5628 5628 5627 5625 5624 5623 5622 5621 5620 5619 5617 5616 5615 5614 5613 5612 5610 5609 5608 5606 5603 5601 5599 5597 5595 5593 5591 5589 5586 5584 5582 5580
5616 5616 5617 5617 5617 5617 5617 5616 5615 5614 5613 5612 5611 5610 5609 5608 5607 5605 5604 5604 5603 5602 5600 5599 5597 5595 5593 5591 5589 5587 5585 5583 5581 5579 5577 5574 5572 5570
5605 5605 5606 5606 5606 5606 5605 5604 5604 5602 5602 5601 5600 5599 5598 5598 5596 5595 5594 5593 5592 5591 5590 5588 5586 5584 5582 5580 5578 5577 5575 5573 5571 5569 5567 5564 5562 5560
5593 5594 5595 5595 5594 5594 5594 5593 5592 5592 5591 5590 5589 5588 5587 5586 5585 5584 5583 5582 5581 5580 5579 5578 5576 5574 5572 5570 5568 5567 5565 5563 5562 5559 5557 5554 5552 5550
5582 5583 5583 5583 5584 5583 5583 5582 5582 5581 5579 5579 5578 5577 5576 5576 5575 5574 5573 5572 5571 5570 5569 5568 5566 5564 5562 5560 5558 5557 5555 5553 5551 5549 5547 5545 5543 5541
5571 5572 5572 5572 5572 5571 5571 5571 5570 5570 5569 5568 5567 5567 5566 5565 5565 5564 5563 5562 5560 5560 5558 5557 5555 5553 5553 5551 5549 5547 5545 5543 5541 5540 5538 5536 5534 5532
5560 5560 5561 5560 5560 5560 5560 5559 5559 5558 5557 5557 5557 5556 5556 5555 5554 5554 5552 5551 5550 5549 5548 5546 5545 5543 5542 5541 5540 5538 5536 5534 5532 5530 5528 5526 5525 5523
5549 5549 5549 5549 5549 5549 5548 5548 5547 5546 5546 5546 5546 5545 5545 5545 5544 5543 5542 5541 5540 5539 5537 5536 5535 5534 5532 5531 5530 5528 5526 5524 5522 5521 5519 5518 5516 5515
5537 5538 5538 5538 5537 5537 5536 5536 5535 5535 5535 5535 5535 5535 5535 5534 5534 5533 5532 5531 5530 5529 5527 5526 5525 5524 5522 5521 5520 5519 5517 5515 5513 5512 5511 5509 5508 5506
5526 5526 5526 5526 5526 5525 5525 5525 5524 5524 5524 5525 5524 5524 5524 5524 5523 5523 5522 5521 5520 5519 5518 5516 5515 5514 5513 5512 5511 5509 5508 5507 5505 5504 5502 5501 5500 5499
5515 5516 5515 5515 5515 5515 5514 5514 5514 5514 5514 5514 5514 5514 5514 5514 5513 5512 5512 5511 5510 5510 5508 5507 5505 5504 5503 5502 5501 5500 5499 5498 5497 5496 5495 5494 5492 5491
5504 5505 5505 5505 5505 5505 5504 5504 5504 5504 5504 5505 5504 5504 5504 5504 5503 5502 5501 5501 5500 5500 5499 5497 5496 5495 5494 5493 5493 5491 5490 5490 5489 5488 5487 5486 5485 5484
5493 5494 5495 5495 5495 5495 5495 5495 5495 5495 5494 5495 5494 5494 5494 5493 5493 5492 5492 5491 5490 5490 5489 5488 5486 5485 5485 5485 5485 5483 5483 5482 5481 5480 5480 5479 5478 5477
5483 5484 5485 5485 5485 5485 5485 5485 5485 5485 5485 5485 5485 5484 5484 5483 5483 5483 5482 5481 5481 5480 5479 5478 5477 5476 5476 5476 5476 5476 5475 5474 5474 5473 5472 5471 5471 5470
5473 5474 5475 5475 5475 5475 5475 5475 5475 5475 5475 5475 5474 5474 5474 5474 5473 5473 5472 5472 5471 5471 5471 5470 5469 5468 5467 5467 5468 5468 5467 5467 5466 5466 5465 5464 5464 5463
5464 5465 5465 5465 5465 5465 5465 5465 5465 5465 5465 5464 5464 5464 5464 5464 5463 5463 5463 5463 5462 5462 5462 5461 5461 5460 5460 5460 5460 5460 5460 5459 5459 5458 5458 5458 5457 5457
5454 5455 5455 5455 5455 5455 5455 5454 5454 5454 5454 5454 5454 5454 5454 5454 5453 5454 5453 5453 5453 5453 5453 5453 5453 5453 5452 5452 5453 5453 5453 5452 5451 5451 5451 5450 5450 5450